GW0360 Weather Reports


time (UTC)temp
F
wind
direction
speed
knots
gust
knots
rain 1hr
in
rain 24hr
in
rain mn
in
humidity
%
barometer
mb
20260505070541 54 0 0.9 8.7 0.04 0.05 0.05 63 1008.2
20260505070052 54 46 1.7 8.7 0.05 0.05 0.05 66 1008.3
20260505065541 53 0 0.9 5.2 0.05 0.05 0.05 67 1008.7
20260505065040 53 60 0.0 2.6 0.05 0.05 0.05 71 1009.0
20260505064546 53 59 0.0 7.0 0.05 0.05 0.05 71 1009.0
20260505064040 53 0 0.0 7.0 0.04 0.04 0.04 69 1009.4
20260505063540 54 76 1.7 7.0 0.04 0.04 0.04 68 1007.6
20260505063053 54 61 0.0 2.6 0.03 0.03 0.03 68 1008.6
20260505062540 54 57 0.0 2.6 0.03 0.03 0.03 66 1009.1
20260505062040 55 36 0.0 3.5 0.02 0.02 0.02 67 1009.1
20260505061549 55 52 0.0 5.2 0.02 0.02 0.02 64 1008.6
20260505061040 56 51 0.0 5.2 0.01 0.01 0.01 63 1008.7
20260505060546 57 288 0.9 5.2 0.01 0.01 0.01 60 1009.0
20260505060052 59 0 0.9 7.8 0.00 0.00 0.00 55 1008.0
20260505055541 61 30 0.9 7.8 0.00 0.00 0.00 49 1007.6
20260505055044 62 35 0.9 7.0 0.00 0.00 0.00 45 1007.1
20260505054618 63 46 0.9 9.6 0.00 0.00 0.00 41 1007.2
20260505054041 63 22 1.7 9.6 0.00 0.00 0.00 41 1007.1
20260505053545 64 59 1.7 7.8 0.00 0.00 0.00 40 1006.9
20260505053053 64 24 0.9 7.8 0.00 0.00 0.00 39 1006.8
20260505052546 64 36 1.7 7.8 0.00 0.00 0.00 39 1006.4
20260505052044 65 140 1.7 9.6 0.00 0.00 0.00 39 1006.4
20260505051557 65 325 1.7 9.6 0.00 0.00 0.00 39 1006.0
20260505051045 66 30 0.0 6.1 0.00 0.00 0.00 39 1005.8
20260505050545 66 25 0.9 6.1 0.00 0.00 0.00 38 1005.5
20260505050104 66 58 0.9 3.5 0.00 0.00 0.00 39 1005.4
20260505041605 69 0 0.9 6.1 0.00 0.00 0.00 39 1005.2
20260505041041 70 59 0.9 6.1 0.00 0.00 0.00 39 1005.0
20260505040542 70 355 0.9 6.1 0.00 0.00 0.00 40 1004.7
20260505040100 71 54 0.0 5.2 0.00 0.00 0.00 40 1004.6
20260505035544 71 0 0.0 5.2 0.00 0.00 0.00 40 1004.9
20260505035040 71 28 0.0 4.3 0.00 0.00 0.00 39 1004.9
20260505034554 71 0 0.0 2.6 0.00 0.00 0.00 41 1005.0
20260505034044 72 0 0.0 9.6 0.00 0.00 0.00 42 1005.0
20260505033544 72 0 0.0 9.6 0.00 0.00 0.00 44 1004.8
20260505033048 71 47 0.9 9.6 0.00 0.00 0.00 47 1004.5
20260505032544 71 0 0.0 4.3 0.00 0.00 0.00 51 1004.5
20260505032047 71 70 0.9 4.3 0.00 0.00 0.00 53 1004.3
20260505031550 70 360 0.9 1.7 0.00 0.00 0.00 60 1004.0
20260505031043 70 0 0.0 1.7 0.00 0.00 0.00 64 1003.8
20260505030544 70 0 0.0 1.7 0.00 0.00 0.00 66 1003.6
20260505025541 70 0 0.0 3.5 0.00 0.00 0.00 65 1003.2
20260505025044 70 0 0.0 3.5 0.00 0.00 0.00 65 1003.3
20260505024547 70 0 0.0 1.7 0.00 0.00 0.00 65 1003.1
20260505024044 70 0 0.0 1.7 0.00 0.00 0.00 65 1003.1
20260505023545 70 0 0.0 1.7 0.00 0.00 0.00 65 1003.1
20260505023053 70 189 0.0 1.7 0.00 0.00 0.00 65 1003.0
20260505022541 70 0 0.0 0.9 0.00 0.00 0.00 65 1003.0
20260505022045 70 0 0.0 0.9 0.00 0.00 0.00 66 1002.8
20260505021555 70 0 0.0 0.0 0.00 0.00 0.00 66 1002.7
20260505021044 70 0 0.0 0.0 0.00 0.00 0.00 65 1002.8
20260505020545 70 0 0.0 0.9 0.00 0.00 0.00 65 1002.7
20260505020058 71 0 0.0 0.9 0.00 0.00 0.00 64 1002.6
20260505015542 71 0 0.0 1.7 0.00 0.00 0.00 65 1002.5
20260505015047 71 0 0.0 1.7 0.00 0.00 0.00 66 1002.5
20260505014553 71 0 0.0 0.0 0.00 0.00 0.00 67 1002.4
20260505014041 71 0 0.0 0.0 0.00 0.00 0.00 66 1002.4
20260505013547 71 0 0.0 0.0 0.00 0.00 0.00 65 1002.4
20260505013054 71 0 0.0 0.0 0.00 0.00 0.00 64 1002.3
20260505012544 72 0 0.0 0.0 0.00 0.00 0.00 63 1002.2
20260505012042 72 0 0.0 0.0 0.00 0.00 0.00 63 1002.2
20260505011552 73 0 0.0 0.0 0.00 0.00 0.00 60 1002.0
20260505011044 73 0 0.0 0.0 0.00 0.00 0.00 60 1001.9
20260505010546 74 0 0.0 0.0 0.00 0.00 0.00 59 1001.9
20260505010109 74 0 0.0 0.0 0.00 0.00 0.00 58 1001.9
20260505005545 75 0 0.0 0.0 0.00 0.00 0.00 56 1001.9
20260505005045 75 0 0.0 0.0 0.00 0.00 0.00 56 1002.0
20260505004549 75 0 0.0 0.9 0.00 0.00 0.00 55 1001.8
20260505004040 76 0 0.0 0.9 0.00 0.00 0.00 54 1002.0
20260505003540 76 0 0.0 0.9 0.00 0.00 0.00 54 1001.9
20260505003052 77 0 0.0 0.9 0.00 0.00 0.00 53 1001.9
20260505002546 77 0 0.0 0.9 0.00 0.00 0.00 52 1001.9
20260505002046 77 0 0.0 0.9 0.00 0.00 0.00 51 1001.9
20260505001551 77 0 0.0 0.9 0.00 0.00 0.00 51 1002.0
20260505001045 78 0 0.0 2.6 0.00 0.00 0.00 50 1002.1
20260505000543 78 0 0.0 2.6 0.00 0.00 0.00 49 1002.0
20260505000100 78 189 0.0 2.6 0.00 0.00 0.00 48 1002.1
20260504235547 78 154 0.0 2.6 0.00 0.00 0.00 49 1002.0
20260504235045 79 0 0.0 2.6 0.00 0.00 0.00 48 1002.1
20260504234551 79 184 0.0 3.5 0.00 0.00 0.00 46 1002.0
20260504234044 79 201 0.9 4.3 0.00 0.00 0.00 47 1002.1
20260504233548 79 185 0.9 4.3 0.00 0.00 0.00 47 1002.1
20260504233057 79 223 0.9 4.3 0.00 0.00 0.00 46 1002.1
20260504232545 80 0 0.9 4.3 0.00 0.00 0.00 45 1002.1
20260504232043 80 201 0.0 4.3 0.00 0.00 0.00 43 1002.1
20260504231555 80 0 0.9 4.3 0.00 0.00 0.00 43 1002.0
20260504231040 80 190 0.0 3.5 0.00 0.00 0.00 44 1002.1
20260504230545 80 0 0.0 3.5 0.00 0.00 0.00 41 1002.0
20260504230110 80 184 0.9 4.3 0.00 0.00 0.00 41 1002.1
20260504225548 80 184 0.9 4.3 0.00 0.00 0.00 40 1002.1
20260504225047 81 217 0.9 6.1 0.00 0.00 0.00 40 1001.9
20260504224606 81 201 2.6 6.1 0.00 0.00 0.00 39 1001.9
20260504224040 81 172 0.9 6.1 0.00 0.00 0.00 38 1001.8
20260504223543 81 250 1.7 6.1 0.00 0.00 0.00 39 1001.9
20260504223047 81 177 1.7 7.0 0.00 0.00 0.00 40 1001.8
20260504222544 82 216 2.6 7.8 0.00 0.00 0.00 39 1001.9
20260504222044 82 157 1.7 8.7 0.00 0.00 0.00 39 1001.8
20260504221548 83 161 3.5 8.7 0.00 0.00 0.00 38 1001.9
20260504221044 83 218 0.9 4.3 0.00 0.00 0.00 40 1001.9
20260504220544 83 180 0.9 6.1 0.00 0.00 0.00 39 1001.8
20260504220058 83 0 1.7 6.1 0.00 0.00 0.00 41 1001.8
20260504215545 83 194 0.9 4.3 0.00 0.00 0.00 40 1001.9
20260504215043 82 149 1.7 4.3 0.00 0.00 0.00 40 1001.9
20260504214548 82 171 0.9 7.8 0.00 0.00 0.00 40 1002.0
20260504214040 82 167 1.7 7.8 0.00 0.00 0.00 40 1002.1
20260504213544 83 146 2.6 7.8 0.00 0.00 0.00 38 1002.1
20260504213056 84 227 2.6 7.8 0.00 0.00 0.00 38 1002.1
20260504212544 83 140 0.9 5.2 0.00 0.00 0.00 41 1002.2
20260504212044 83 204 1.7 11.3 0.00 0.00 0.00 40 1002.2
20260504211558 83 204 1.7 11.3 0.00 0.00 0.00 40 1002.1
20260504211043 83 138 0.9 6.1 0.00 0.00 0.00 40 1002.2
20260504210547 83 138 2.6 6.1 0.00 0.00 0.00 42 1002.4
20260504210101 83 171 1.7 6.1 0.00 0.00 0.00 39 1002.4
20260504205544 83 170 1.7 7.8 0.00 0.00 0.00 38 1002.3
20260504205044 83 128 1.7 8.7 0.00 0.00 0.00 40 1002.4
20260504204554 82 207 2.6 8.7 0.00 0.00 0.00 38 1002.5
20260504204041 82 178 1.7 7.0 0.00 0.00 0.00 40 1002.5
20260504203545 83 103 2.6 7.8 0.00 0.00 0.00 38 1002.6
20260504203057 84 225 1.7 7.8 0.00 0.00 0.00 36 1002.6
20260504202544 85 188 0.9 5.2 0.00 0.00 0.00 36 1002.6
20260504202044 83 186 0.9 9.6 0.00 0.00 0.00 37 1002.6
20260504201604 84 207 2.6 9.6 0.00 0.00 0.00 36 1002.7
20260504201043 83 137 0.9 6.1 0.00 0.00 0.00 36 1002.7
20260504200543 83 226 0.9 7.8 0.00 0.00 0.00 38 1002.8
20260504195542 84 176 1.7 7.0 0.00 0.00 0.00 37 1002.8
20260504195044 84 148 0.9 6.1 0.00 0.00 0.00 37 1003.0
20260504194552 84 224 0.9 5.2 0.00 0.00 0.00 36 1002.9
20260504194041 84 182 0.9 7.8 0.00 0.00 0.00 36 1002.8
20260504193543 85 261 2.6 7.8 0.00 0.00 0.00 36 1002.9
20260504193050 84 225 0.9 4.3 0.00 0.00 0.00 39 1002.9
20260504192543 85 0 1.7 6.1 0.00 0.00 0.00 35 1002.9
20260504192044 84 247 0.0 6.1 0.00 0.00 0.00 38 1002.9
20260504191612 85 209 1.7 7.8 0.00 0.00 0.00 38 1003.0
20260504191044 85 213 1.7 9.6 0.00 0.00 0.00 36 1003.0
20260504190547 85 245 3.5 9.6 0.00 0.00 0.00 36 1003.0
20260504190055 85 200 3.5 7.8 0.00 0.00 0.00 35 1003.0
20260504185543 85 182 2.6 7.8 0.00 0.00 0.00 37 1003.0
20260504185042 84 184 0.9 7.0 0.00 0.00 0.00 41 1003.0
20260504184551 84 148 2.6 7.0 0.00 0.00 0.00 40 1003.0
20260504184043 83 332 1.7 7.0 0.00 0.00 0.00 39 1003.0
20260504183543 83 186 1.7 7.0 0.00 0.00 0.00 41 1003.0
20260504183049 83 0 1.7 8.7 0.00 0.00 0.00 39 1003.1
20260504182544 83 190 3.5 9.6 0.00 0.00 0.00 40 1003.1
20260504182041 83 236 1.7 9.6 0.00 0.00 0.00 41 1003.2
20260504181548 81 229 1.7 9.6 0.00 0.00 0.00 42 1003.1
20260504181044 82 211 2.6 9.6 0.00 0.00 0.00 40 1003.1
20260504180544 81 73 1.7 7.0 0.00 0.00 0.00 41 1003.1
20260504180052 82 173 2.6 7.0 0.00 0.00 0.00 41 1003.2
20260504175544 82 204 2.6 7.0 0.00 0.00 0.00 40 1003.3
20260504175045 82 173 2.6 7.0 0.00 0.00 0.00 41 1003.3
20260504174556 81 210 3.5 6.1 0.00 0.00 0.00 41 1003.2
20260504174044 81 146 1.7 8.7 0.00 0.00 0.00 42 1003.3
20260504173545 81 0 2.6 8.7 0.00 0.00 0.00 40 1003.2
20260504173052 81 230 2.6 8.7 0.00 0.00 0.00 39 1003.2
20260504172916 80 208 1.7 6.1 0.00 0.00 0.00 42 1003.4
20260504172043 81 185 1.7 6.1 0.00 0.00 0.00 43 1003.5
20260504171555 80 156 1.7 5.2 0.00 0.00 0.00 43 1003.4
20260504171044 80 232 0.9 6.1 0.00 0.00 0.00 43 1003.6
20260504170540 80 198 2.6 7.8 0.00 0.00 0.00 41 1003.5
20260504151043 73 232 2.6 9.6 0.00 0.00 0.00 48 1003.7
20260504150607 73 187 3.5 9.6 0.00 0.00 0.00 48 1003.8
20260504141040 69 191 2.6 12.2 0.00 0.00 0.00 56 1003.8
20260504140541 68 230 2.6 9.6 0.00 0.00 0.00 57 1003.8
20260504130543 63 234 0.9 6.1 0.00 0.00 0.00 64 1003.5
20260504120124 54 0 0.0 0.0 0.00 0.00 0.00 82 1003.7
20260504110540 54 0 0.0 0.0 0.00 0.00 0.00 79 1003.8
20260504100540 55 0 0.0 0.0 0.00 0.00 0.00 77 1004.7
20260504081554 57 0 0.0 0.9 0.00 0.00 0.00 69 1005.0
20260504081042 58 0 0.0 0.0 0.00 0.00 0.00 69 1005.1
20260504080541 58 0 0.0 0.9 0.00 0.00 0.00 68 1005.0